Погода в Чернушке

Погода в Чернушке : погода сейчас, прогноз погоды и архив. Всё, что Вы хотите узнать о погоде в Чернушке!

Хотите узнать прогноз погоды в Чернушке? Тогда Вам сюда: Погода в Чернушке

Поиск расширенной информации на нашем сайте:

Другие новости

Новости СМИ2

Главная страница сайта

Новости сайта

03.07.2017

Напоминаем, что на нашем специализированном сайте Метеоцентр.Азия вы можете получить высокодетализированные автоматические прогнозы погоды по пунктам России, СНГ и мира в авиационном формате (включающие направление и скорость ветра, видимость, явления погоды, количество и форму облачности, нижнюю и верхнюю границу облачности).


Погода в Чернушке - сегодня

Время (UTC), дата Ветер
(°,м/с) 
Видим.   Явления Облачность Т
(°С)
Тd
(°С)
f(%) Тe
(°С)
Pmin
(гПа)
dP
(гПа)
Po
(мм)
O2
(г/м3)
Тmin Tmax R s Состояние
почвы
09 22.05.18 310 (СЗ) 7-11{14}  20000 м    ясно 
+23.1 +2.4 26 +23  1023.6  -1.5  755  280           
12 22.05.18 310 (СЗ) 7-14{14}  20000 м    ясно 
+24.9 +3.5 25 +25  1022.5  -1  754  278           
18 22.05.18 310 (СЗ) 20000 м    ясно 
+17.5 +5.5 45 +18  1023.6  755  285           
21 22.05.18 030 (СВ) 20000 м    ясно 
+12.9 +6.1 63 +14  1025.7  1.8  756  290           
00 23.05.18 020 (С) 20000 м    ясно 
+9.6 +5.9 78 +11  1027.3  1.8  757  294           
06 23.05.18 150 (ЮВ) 20000 м    ясно 
+22.1 +1.9 26 +22  1026.1  -0.9  757  282           
09 23.05.18 250 (З) 20000 м    3/3 600 м верхняя 
[Cu hum|Ci fib]
+26.6 +7.1 29 +27  1023.7  -2.1  755  276           
18 23.05.18 260 (З) 20000 м    10/8 600 м кучево-дожд., верхняя 
[Cb cap|Ci fib]
+18.4 +6.5 46 +19  1020  -1  752  283           
21 23.05.18 260 (З) 20000 м    10/6 600 м средняя, верхняя 
[Sc|Ac trans|Ci fib]
+16.4 +5.8 49 +17  1018.8  -1  751  285           
00 24.05.18 тихо ()   20000 м    10/9 600 м кучево-дожд., верхняя 
[Cb cap|Ci fib]
+14.8 +7.1 60 +15  1017.7  -1.2  750  285           
12 24.05.18 310 (СЗ) 5{13}  20000 м    10/8 600 м кучево-дожд., верхняя 
[Cb cap|Ci fib]
+22.9 +5.6 33 +23  1013.9  -0.2  748  277           
18 24.05.18 020 (С) 20000 м    9/9 600 м кучево-дожд. 
[Cb cap]
+14.8 +10.1 73 +17  1015.6  0.5  749  284           
21 24.05.18 040 (СВ) 20000 м    10/10 600 м кучево-дожд. 
[Cb cap]
+12 +7.1 72 +12  1016.3  0.5  749  288           
00 25.05.18 030 (СВ) 20000 м    10/10 600 м кучево-дожд. 
[Cb cap]
+7.9 +3.2 72 +8  1017  0.4  749  293           
06 25.05.18 010 (С) 20000 м    10/3 600 м кучево-дожд., средняя, верхняя 
[Cb cap|Ac trans|Ci fib]
+12.2 -2.9 35 +12  1015.7  -0.2  748  289           
09 25.05.18 020 (С) 20000 м    10/6 600 м кучево-дожд., средняя 
[Cb cap|Ac und]
+11 -3.6 36 +10  1016  0.2  749  290           
18 25.05.18 340 (С) 20000 м    ясно 
+5.7 -2.9 54 +5  1019.4  0.4  751  297           
21 25.05.18 350 (С) 20000 м    ясно 
+3.9 -2.5 63 +3  1020.6  752  299           
00 26.05.18 010 (С) 20000 м    8/8 600 м 
[Sc]
+4.6 -1.8 63 +3  1021.9  1.3  753  298           
09 26.05.18 020 (С) 4{13}  20000 м    6/6 600 м 
[Sc]
+11.2 -6.3 29 +10  1024.6  0.4  755  293           
18 26.05.18 280 (З) 20000 м    ясно 
+4.4 -3.5 56 +4  1025.5  0.8  755  300           
21 26.05.18 тихо ()   20000 м    3/3 2000 м средняя 
[Ac trans]
+0.6 -3.2 76 +1  1025.6  -0.2  755  304           
00 27.05.18 170 (Ю) 20000 м    8/8 600 м 
[Sc]
+1 -2.7 76 1024.1  -1.4  754  303           
12 27.05.18 290 (З) 3{18}  20000 м    10/9 600 м кучево-дожд., средняя 
[Cb cap|Ac und]
+18.3 +6.3 45 +19  1012.2  -2.9  746  281           
00 28.05.18 330 (СЗ) 10 км  в посл. час ливневой дождь  10/6 600 м кучево-дожд., средняя 
[Cb cap|Ac und]
+7 +5.7 91 +7  1008.5  0.7  743  291           
Время (UTC), дата Ветер
(°,м/с) 
Видим.   Явления Облачность Т
(°С)
Тd
(°С)
f(%) Тe
(°С)
Pmin
(гПа)
dP
(гПа)
Po
(мм)
O2
(г/м3)
Тmin Tmax R s Состояние
почвы

Для получения пояснительной информации подведите курсор к названию столбца.

ПОГОДА в Чернушке - архив

Всё, что Вы хотите узнать о погоде в Чернушке - удобно и подробно!

Выберите нужную дату (начиная с 1 января 2015* года) и нажмите кнопку "Найти".
Будут отображены архивные сводки погоды по пункту Чернушка, начиная с указанной даты.


Отображать данные в формате CSV (для использования в таблицах Excel)


Внимание! Наш архив погоды предназначен исключительно для личного некоммерческого использования в познавательных целях. Если Вам необходимы официальные справки о состоянии погоды (для производственных, юридических, коммерческих и т.п. целей), обращайтесь в органы Росгидромета.

*Примечание: данная дата относится к архиву по метеостанциям СССР (Россия, СНГ, Балтия).
Архив по метеостанциям Зарубежной Европы и Азии (кроме Китая) хранится 10 дней, по другим регионам земного шара (Китай, Африка, Америка, Австралия, Океания) - 1 день.

Чернушка - район местоположения метеостанции


Название, широта, долгота, высота метеостанции:
Чернушка 56.5°ш. 56.1°д. 148 м над ур. моря [Российская Федерация]

Дополнительная информация

В oтличие oт бoльшинства пoгoдных сайтoв мы публикуем пoдрoбную метеoинфoрмацию в детальнoм прoфессиoнальнoм фoрмате.

Характеристики температуры и влажнoсти вoздуха измеряются на высoте 2 м в тени вдали oт зданий и деревьев.
Скoрoсть ветра измеряется на высoте 10 м (на урoвне рoста челoвека скoрoсть ветра ниже в 1.5-2 раза). Если метеoстанция нахoдится в гoрoде или в лесу, тo скoрoсть ветра занижена на 2-4 м/с пo сравнению с oткрытым местoм. Скoрoсть ветра над акватoриями крупных рек и oзёр, а также на вершинах хoлмoв на 2-5 м/с выше, чем в oбычных услoвиях.
Атмoсфернoе давление в разных тoчках местнoсти мoжет значительнo oтличаться oт давления на метеoстанции, в зависимoсти oт услoвий рельефа (при пoдъёме на 10 м давление пoнижается примернo на 1 мм рт.ст.).